Location: Aiyekoto
(8.4333°N, 4.3667°E)
Time: 17:33:58
(UTC+00:00)

Cosmos 2219 Rocket - Visible Passes

Search period start: 26 September 2020 00:00
Search period end: 06 October 2020 00:00
Orbit: 826 x 848 km, 71.0° (Epoch: 26 September)

Date Brightness Start Highest point End Pass type
(mag) Time Alt. Az. Time Alt. Az. Time Alt. Az.
26 Sep 4.0 02:59:59 26° ENE 02:59:59 26° ENE 03:02:49 10° NE visible
26 Sep 3.7 04:41:49 15° WNW 04:41:49 15° WNW 04:44:33 10° NW visible
27 Sep 4.7 02:45:28 14° NE 02:45:28 14° NE 02:46:19 10° NE visible
27 Sep 4.0 04:27:17 14° NW 04:27:17 14° NW 04:28:32 10° NNW visible
